When you browse on this site, cookies collect data to enhance your experience and personalize the content and advertising you see.
Visit our Privacy Policy to learn more. By continuing to use the site, you agree to this use of cookies and data.
  • In Hungary
  • List of Countries
  • For 7 days
  • Water Temperature
  • Weather Map
  • News
  • Weather Widgets
  • user-avatar
    Login

    Hourly Weather Wierzbica

    Today, 21 November, Thursday

    Time Temperature Precipitation Wind Pressure Humidity
    00:00 +7°C° 0 mm 5 mps 733 mmHg 90%
    01:00 +7°C° 0 mm 4 mps 733 mmHg 90%
    02:00 +7°C° 0 mm 4 mps 733 mmHg 89%
    03:00 +7°C° 0 mm 4 mps 733 mmHg 88%
    04:00 +7°C° 0 mm 4 mps 732 mmHg 87%
    05:00 +7°C° 0 mm 4 mps 732 mmHg 89%
    06:00 +7°C° 0 mm 5 mps 732 mmHg 90%
    07:00 +7°C° 0 mm 5 mps 732 mmHg 91%
    08:00 +8°C° 0 mm 6 mps 732 mmHg 88%
    09:00 +8°C° 0 mm 6 mps 732 mmHg 85%
    10:00 +9°C° 0 mm 6 mps 732 mmHg 82%
    11:00 +9°C° 0.1 mm 6 mps 732 mmHg 80%
    12:00 +10°C° 0.1 mm 7 mps 732 mmHg 79%
    13:00 +10°C° 0.1 mm 7 mps 732 mmHg 77%
    14:00 +10°C° 0.2 mm 6 mps 732 mmHg 78%
    15:00 +9°C° 0.2 mm 6 mps 732 mmHg 79%
    16:00 +9°C° 0.2 mm 6 mps 732 mmHg 79%
    17:00 +9°C° 0 mm 5 mps 732 mmHg 80%
    18:00 +8°C° 0 mm 5 mps 732 mmHg 81%
    19:00 +8°C° 0 mm 4 mps 732 mmHg 82%
    20:00 +8°C° 0 mm 4 mps 733 mmHg 83%
    21:00 +8°C° 0 mm 4 mps 733 mmHg 83%
    22:00 +7°C° 0 mm 5 mps 733 mmHg 84%
    23:00 +8°C° 0 mm 4 mps 733 mmHg 84%

    Tomorrow, 22 November, Friday

    Time Temperature Precipitation Wind Pressure Humidity
    00:00 +8°C° 0 mm 4 mps 733 mmHg 84%
    01:00 +8°C° 0 mm 4 mps 734 mmHg 83%
    02:00 +8°C° 0.1 mm 4 mps 733 mmHg 84%
    03:00 +7°C° 0.1 mm 5 mps 733 mmHg 85%
    04:00 +7°C° 0.1 mm 5 mps 733 mmHg 86%
    05:00 +7°C° 0 mm 5 mps 734 mmHg 84%
    06:00 +6°C° 0 mm 5 mps 734 mmHg 83%
    07:00 +6°C° 0 mm 5 mps 734 mmHg 82%
    08:00 +5°C° 0 mm 6 mps 734 mmHg 79%
    09:00 +5°C° 0 mm 6 mps 734 mmHg 77%
    10:00 +7°C° 0 mm 6 mps 734 mmHg 75%
    11:00 +7°C° 0 mm 6 mps 734 mmHg 73%
    12:00 +8°C° 0 mm 6 mps 734 mmHg 71%
    13:00 +9°C° 0 mm 5 mps 734 mmHg 69%
    14:00 +8°C° 0 mm 5 mps 734 mmHg 72%
    15:00 +7°C° 0 mm 5 mps 734 mmHg 74%
    16:00 +7°C° 0 mm 5 mps 734 mmHg 77%
    17:00 +6°C° 0 mm 5 mps 734 mmHg 78%
    18:00 +5°C° 0 mm 5 mps 734 mmHg 79%
    19:00 +3°C° 0 mm 5 mps 734 mmHg 80%
    20:00 +3°C° 0 mm 5 mps 734 mmHg 81%
    21:00 +2°C° 0 mm 5 mps 734 mmHg 82%
    22:00 +3°C° 0 mm 4 mps 734 mmHg 83%
    23:00 +3°C° 0 mm 4 mps 734 mmHg 84%

    Day after tomorrow, 23 November, Saturday

    Time Temperature Precipitation Wind Pressure Humidity
    00:00 +3°C° 0 mm 4 mps 734 mmHg 84%
    01:00 +3°C° 0 mm 4 mps 734 mmHg 85%
    02:00 +1°C° 0 mm 4 mps 734 mmHg 85%
    03:00 +1°C° 0 mm 4 mps 734 mmHg 86%
    04:00 +1°C° 0 mm 4 mps 734 mmHg 86%
    05:00 +1°C° 0 mm 4 mps 734 mmHg 86%
    06:00 +1°C° 0 mm 4 mps 734 mmHg 86%
    07:00 0°C° 0 mm 4 mps 734 mmHg 86%
    08:00 +1°C° 0 mm 4 mps 734 mmHg 83%
    09:00 +2°C° 0 mm 5 mps 734 mmHg 80%
    10:00 +3°C° 0 mm 5 mps 733 mmHg 78%
    11:00 +6°C° 0 mm 5 mps 733 mmHg 75%
    12:00 +7°C° 0 mm 5 mps 733 mmHg 72%
    13:00 +8°C° 0 mm 5 mps 733 mmHg 69%
    14:00 +8°C° 0 mm 5 mps 733 mmHg 72%
    15:00 +7°C° 0 mm 5 mps 733 mmHg 76%
    16:00 +6°C° 0 mm 5 mps 732 mmHg 79%
    17:00 +5°C° 0 mm 5 mps 732 mmHg 82%
    18:00 +5°C° 0 mm 5 mps 733 mmHg 84%
    19:00 +3°C° 0 mm 5 mps 733 mmHg 86%
    20:00 +4°C° 0.1 mm 4 mps 733 mmHg 86%
    21:00 +4°C° 0.1 mm 4 mps 733 mmHg 86%
    22:00 +4°C° 0.1 mm 3 mps 733 mmHg 86%
    23:00 +4°C° 0.1 mm 3 mps 733 mmHg 84%

    24 November, Sunday

    Time Temperature Precipitation Wind Pressure Humidity
    00:00 +4°C° 0.1 mm 4 mps 733 mmHg 83%
    01:00 +4°C° 0.1 mm 4 mps 733 mmHg 82%
    02:00 +4°C° 0 mm 4 mps 733 mmHg 82%
    03:00 +4°C° 0 mm 4 mps 732 mmHg 82%
    04:00 +4°C° 0 mm 4 mps 732 mmHg 82%
    05:00 +4°C° 0 mm 4 mps 732 mmHg 82%
    06:00 +4°C° 0 mm 4 mps 732 mmHg 81%
    07:00 +4°C° 0 mm 4 mps 733 mmHg 81%
    08:00 +4°C° 0 mm 4 mps 733 mmHg 79%
    09:00 +5°C° 0 mm 4 mps 733 mmHg 77%
    10:00 +7°C° 0 mm 3 mps 733 mmHg 75%
    11:00 +7°C° 0 mm 3 mps 733 mmHg 74%
    12:00 +7°C° 0 mm 2 mps 733 mmHg 74%
    13:00 +9°C° 0 mm 1 mps 733 mmHg 73%
    14:00 +9°C° 0 mm 1 mps 733 mmHg 74%
    15:00 +8°C° 0 mm 1 mps 733 mmHg 76%
    16:00 +8°C° 0 mm 1 mps 733 mmHg 77%
    17:00 +8°C° 0 mm 1 mps 733 mmHg 78%
    18:00 +8°C° 0 mm 1 mps 733 mmHg 79%
    19:00 +8°C° 0 mm 1 mps 734 mmHg 79%
    20:00 +8°C° 0 mm 1 mps 734 mmHg 80%
    21:00 +7°C° 0 mm 1 mps 734 mmHg 80%
    22:00 +7°C° 0 mm 1 mps 734 mmHg 81%
    23:00 +7°C° 0 mm 1 mps 734 mmHg 81%

    25 November, Monday

    Time Temperature Precipitation Wind Pressure Humidity
    00:00 +7°C° 0 mm 1 mps 734 mmHg 81%
    01:00 +7°C° 0 mm 1 mps 734 mmHg 81%
    02:00 +7°C° 0 mm 1 mps 734 mmHg 82%
    03:00 +7°C° 0 mm 1 mps 734 mmHg 83%
    04:00 +7°C° 0 mm 1 mps 734 mmHg 85%
    05:00 +7°C° 0 mm 1 mps 734 mmHg 86%
    06:00 +7°C° 0 mm 1 mps 734 mmHg 87%
    07:00 +7°C° 0 mm 1 mps 734 mmHg 88%
    08:00 +8°C° 0 mm 1 mps 734 mmHg 85%
    09:00 +8°C° 0 mm 1 mps 734 mmHg 83%
    10:00 +9°C° 0 mm 1 mps 734 mmHg 81%
    11:00 +9°C° 0 mm 1 mps 734 mmHg 78%
    12:00 +9°C° 0 mm 1 mps 734 mmHg 75%
    13:00 +10°C° 0 mm 1 mps 734 mmHg 72%
    14:00 +9°C° 0 mm 1 mps 734 mmHg 74%
    15:00 +9°C° 0 mm 1 mps 734 mmHg 76%
    16:00 +9°C° 0 mm 1 mps 734 mmHg 78%
    17:00 +8°C° 0 mm 1 mps 734 mmHg 79%
    18:00 +8°C° 0 mm 1 mps 734 mmHg 79%
    19:00 +8°C° 0 mm 1 mps 734 mmHg 79%
    20:00 +8°C° 0 mm 1 mps 734 mmHg 79%
    21:00 +8°C° 0 mm 1 mps 734 mmHg 80%
    22:00 +7°C° 0 mm 1 mps 734 mmHg 80%
    23:00 +7°C° 0 mm 1 mps 734 mmHg 81%

    26 November, Tuesday

    Time Temperature Precipitation Wind Pressure Humidity
    00:00 +7°C° 0 mm 1 mps 733 mmHg 81%
    01:00 +7°C° 0 mm 1 mps 733 mmHg 81%
    02:00 +7°C° 0 mm 1 mps 733 mmHg 81%
    03:00 +7°C° 0 mm 1 mps 733 mmHg 81%
    04:00 +7°C° 0 mm 1 mps 733 mmHg 81%
    05:00 +6°C° 0 mm 2 mps 733 mmHg 82%
    06:00 +6°C° 0 mm 2 mps 732 mmHg 82%
    07:00 +6°C° 0 mm 2 mps 732 mmHg 82%
    08:00 +6°C° 0 mm 2 mps 732 mmHg 80%
    09:00 +7°C° 0 mm 3 mps 732 mmHg 77%
    10:00 +7°C° 0 mm 3 mps 732 mmHg 75%
    11:00 +8°C° 0 mm 3 mps 732 mmHg 74%
    12:00 +7°C° 0 mm 4 mps 732 mmHg 73%
    13:00 +7°C° 0 mm 4 mps 731 mmHg 73%
    14:00 +7°C° 0 mm 4 mps 731 mmHg 75%
    15:00 +7°C° 0 mm 4 mps 731 mmHg 77%
    16:00 +7°C° 0 mm 3 mps 731 mmHg 80%
    17:00 +6°C° 0 mm 4 mps 731 mmHg 80%
    18:00 +6°C° 0 mm 4 mps 731 mmHg 80%
    19:00 +6°C° 0 mm 4 mps 731 mmHg 80%
    20:00 +6°C° 0 mm 4 mps 731 mmHg 80%
    21:00 +6°C° 0 mm 4 mps 731 mmHg 80%
    22:00 +7°C° 0 mm 5 mps 731 mmHg 80%
    23:00 +6°C° 0 mm 4 mps 731 mmHg 81%
    Show more